FW1036 Weather Reports


Display with metric or nautical units.
time (UTC)temp
F
wind
direction
speed
MPH
gust
MPH
rain 1hr
in
rain 24hr
in
rain mn
in
humidity
%
barometer
mb
20260503031554 37 194 1.0 4.0 0.00 0.00 0.00 67 1014.5
20260503024553 38 174 2.0 7.0 0.00 0.00 0.00 68 1014.6
20260503023059 38 176 3.0 7.0 0.00 0.00 0.00 68 1014.7
20260503021559 38 170 4.0 8.0 0.00 0.00 0.00 68 1014.7
20260503020058 39 165 5.0 9.0 0.00 0.00 0.00 68 1014.7
20260503014554 38 171 4.0 7.0 0.00 0.00 0.00 70 1014.7
20260503013051 37 174 3.0 6.0 0.00 0.00 0.00 73 1014.6
20260503011551 37 147 1.0 5.0 0.00 0.00 0.00 74 1014.6
20260503010058 38 139 1.0 4.0 0.00 0.00 0.00 70 1014.5
20260503004559 40 159 3.0 8.0 0.00 0.00 0.00 65 1014.5
20260503003103 41 163 0.0 0.0 0.00 0.00 0.00 63 1014.5
20260503001602 42 163 0.0 2.0 0.00 0.00 0.00 60 1014.5
20260503000047 43 163 1.0 5.0 0.00 0.00 0.00 59 1014.6
20260502234546 45 191 1.0 4.0 0.00 0.00 0.00 55 1014.6
20260502233046 45 215 2.0 6.0 0.00 0.00 0.00 54 1014.7
20260502231545 45 169 3.0 7.0 0.00 0.00 0.00 53 1014.8
20260502230045 46 161 4.0 10.0 0.00 0.00 0.00 55 1014.9
20260502224542 46 159 4.0 10.0 0.00 0.00 0.00 55 1015.0
20260502223041 45 138 5.0 12.0 0.00 0.00 0.00 57 1015.1
20260502221540 45 148 8.0 12.0 0.00 0.00 0.00 56 1015.1
20260502220038 46 135 7.0 12.0 0.00 0.00 0.00 57 1015.2
20260502214537 46 113 6.0 12.0 0.00 0.00 0.00 56 1015.3
20260502213051 44 149 3.0 10.0 0.00 0.00 0.00 58 1015.4
20260502211537 44 116 6.0 10.0 0.00 0.00 0.00 59 1015.5
20260502210037 43 130 6.0 11.0 0.00 0.00 0.00 60 1015.6
20260502204536 43 127 6.0 12.0 0.00 0.00 0.00 60 1015.7
20260502203039 44 107 7.0 12.0 0.00 0.00 0.00 60 1015.9
20260502201528 44 117 7.0 10.0 0.00 0.00 0.00 60 1016.1
20260502200045 43 76 1.0 7.0 0.00 0.00 0.00 59 1016.2
20260502194525 44 38 7.0 11.0 0.00 0.00 0.00 54 1016.4
20260502193025 44 111 1.0 4.0 0.00 0.00 0.00 54 1016.5
20260502191525 44 141 2.0 9.0 0.00 0.00 0.00 57 1016.6
20260502190024 44 14 9.0 14.0 0.00 0.00 0.00 61 1016.8
20260502184524 45 203 1.0 3.0 0.00 0.00 0.00 50 1016.7
20260502183022 44 271 2.0 7.0 0.00 0.00 0.00 48 1016.9
20260502181526 44 291 0.0 4.0 0.00 0.00 0.00 48 1016.9
20260502163019 42 279 1.0 7.0 0.00 0.00 0.00 51 1017.1
20260502161514 43 360 4.0 11.0 0.00 0.00 0.00 54 1017.1
20260502151508 41 291 3.0 12.0 0.00 0.00 0.00 58 1017.4
20260502123039 37 274 3.0 8.0 0.00 0.00 0.00 78 1017.6
20260502121536 36 300 1.0 6.0 0.00 0.00 0.00 82 1017.6
20260502114527 34 282 1.0 6.0 0.00 0.00 0.00 87 1017.4
20260502113025 33 268 0.0 3.0 0.00 0.00 0.00 88 1017.4
20260502111521 33 275 0.0 0.0 0.00 0.00 0.00 87 1017.4
20260502110019 32 275 0.0 2.0 0.00 0.00 0.00 87 1017.3
20260502104617 32 275 0.0 3.0 0.00 0.00 0.00 86 1017.1
20260502103036 32 269 0.0 3.0 0.00 0.00 0.00 86 1017.1
20260502101512 33 265 0.0 3.0 0.00 0.00 0.00 85 1017.1
20260502091504 34 266 0.0 3.0 0.00 0.00 0.00 85 1016.7
20260502070051 35 258 0.0 0.0 0.00 0.00 0.00 81 1016.6
20260502064551 35 258 0.0 0.0 0.00 0.00 0.00 80 1016.8
20260502063055 35 258 0.0 0.0 0.00 0.00 0.00 80 1016.8
20260502061548 35 258 0.0 0.0 0.00 0.00 0.00 79 1016.9
20260502060046 36 258 0.0 0.0 0.00 0.00 0.00 78 1016.9
20260502054554 36 258 0.0 0.0 0.00 0.00 0.00 79 1016.9
20260502053049 35 258 0.0 0.0 0.00 0.00 0.00 79 1016.8
20260502051543 35 342 0.0 0.0 0.00 0.00 0.00 78 1016.8
20260502050043 35 342 0.0 0.0 0.00 0.00 0.00 78 1016.8
20260502044542 36 342 0.0 0.0 0.00 0.00 0.00 78 1016.8
20260502043043 36 342 0.0 0.0 0.00 0.00 0.00 76 1016.9
20260502041539 36 342 0.0 0.0 0.00 0.00 0.00 73 1016.9
20260502040035 36 342 0.0 0.0 0.00 0.00 0.00 72 1016.7
20260502034535 36 342 0.0 2.0 0.00 0.00 0.00 72 1016.8
20260502033041 36 281 0.0 3.0 0.00 0.00 0.00 70 1016.8